Vorticity
5 6 6 6 7 7 7 6 6 9 8 6 5 5 6 7 12 7 5 6 8 4 7 9 5 7 5 6 7 9 5 30 31 -9 3 -1 -6 15 3 10 9 10 9 7 7
4 5 6 7 5 6 7 8 9 8 8 8 7 5 4 7 7 12 8 7 4 10 5 9 8 4 4 7 9 10 -4 12 -4 -0 4 -8 -1 16 10 7 10 7 11 11 10
5 5 4 2 4 6 5 5 4 8 11 10 9 7 7 5 7 5 12 10 9 5 7 3 6 7 6 2 4 6 -5 23 22 9 -7 -24 11 11 6 10 8 12 7 11 8
1 2 3 4 5 4 2 4 5 4 2 7 12 11 7 7 2 6 5 10 8 6 3 3 4 7 4 9 -1 3 -2 -2 -7 8 -5 13 -2 -4 5 13 12 8 7 9 8
9 9 8 6 3 2 2 5 4 2 5 5 2 7 11 10 8 9 5 5 10 11 6 6 5 6 6 11 7 1 4 10 8 9 -5 12 8 -17 19 -2 18 11 6 10 8
13 14 14 12 11 9 8 5 1 3 5 2 5 6 5 14 9 6 9 6 6 10 12 3 9 6 4 5 9 7 3 8 -16 17 18 -4 10 1 6 -21 15 10 12 11 10
6 6 9 11 13 16 18 14 9 7 2 2 5 2 11 3 9 10 8 7 7 9 11 11 5 2 5 2 5 6 2 -9 5 -6 0 -4 4 11 9 -13 2 6 13 12 11
5 4 3 1 1 2 3 6 14 18 11 8 2 3 6 2 7 11 9 6 10 8 6 11 9 6 0 7 3 7 10 -6 6 6 3 -4 4 4 -6 3 -9 15 10 14 12
3 5 4 5 5 4 3 3 5 2 12 18 10 8 4 3 4 6 11 7 8 6 8 8 9 11 6 4 -0 -3 6 4 -3 8 -2 5 9 6 8 -6 18 8 5 9 13
4 5 5 6 6 5 2 9 1 3 5 3 11 14 10 3 4 1 7 10 9 5 5 8 11 9 7 1 4 7 8 4 8 -3 -0 -5 11 6 1 -8 18 -8 11 2 8
6 0 7 6 1 5 12 12 4 5 1 3 4 9 16 14 7 7 5 6 10 8 5 7 5 9 17 12 8 10 9 9 27 5 1 7 2 -1 5 -1 -11 15 -8 -0 5
12 8 3 4 9 9 8 1 5 9 16 13 5 4 6 9 14 8 6 4 5 12 7 4 8 9 11 15 11 8 1 4 13 13 12 -8 -3 6 -2 -1 -3 15 8 14 -5
11 12 7 13 15 20 24 17 10 1 11 9 17 9 6 2 11 13 9 5 3 4 10 7 -3 12 8 9 10 11 2 5 14 7 -0 -18 24 7 -5 -4 13 -5 3 -14 12
16 19 23 35 49 37 30 38 52 49 35 77 13 16 4 1 -1 13 11 9 4 3 6 9 8 4 9 6 14 18 7 5 24 -3 7 14 -1 -9 10 2 4 8 10 -12 9
18 28 19 15 24 -3 8 10 10 25 27 28 46 33 20 6 5 13 15 13 10 5 0 7 12 6 6 9 6 22 15 6 28 -9 2 11 10 -4 18 9 -3 11 14 4 19
26 20 8 18 9 12 8 -1 -3 1 18 63 16 4 41 23 22 10 15 6 6 13 4 3 7 9 5 12 6 17 13 9 25 -6 0 1 2 -0 2 4 4 5 -0 15 46
31 -1 -3 1 0 7 19 18 15 -2 8 -11 75 25 16 36 31 11 1 17 2 10 5 3 6 9 3 9 7 8 14 15 18 -2 -4 -4 6 -11 36 2 7 5 1 -2 1
14 -2 -1 1 1 5 3 20 21 14 6 14 -21 54 26 29 26 27 6 -0 15 7 5 10 3 5 8 6 -6 1 6 11 12 -1 4 13 -1 -7 2 0 4 -8 11 5 0
3 -5 -4 -1 5 -10 18 33 35 15 -2 26 13 -6 56 2 40 5 24 13 7 23 10 6 4 14 8 9 7 3 5 22 8 22 5 3 11 -6 -1 12 -0 16 -6 -4 -1
6 5 2 -2 10 43 36 34 23 8 11 16 12 8 -7 31 21 27 24 30 5 -3 13 17 2 18 15 16 12 5 -1 10 3 12 14 8 15 11 32 15 -1 11 3 10 -5
3 3 -1 29 32 3 7 32 43 6 8 2 12 10 13 18 18 28 6 8 25 9 14 8 10 -2 -2 27 9 3 -2 16 19 5 11 12 18 -0 -3 10 58 18 -12 11 7
4 9 27 27 -1 -0 17 23 26 19 10 16 22 11 15 4 32 47 3 2 18 11 11 4 3 3 -3 -7 18 15 5 -1 7 11 2 4 5 -11 16 35 -4 41 20 -6 4
28 31 20 6 6 5 21 25 17 29 22 14 16 15 19 22 74 16 16 -1 21 6 10 18 24 7 24 5 11 4 5 7 2 13 13 5 1 -16 -2 25 12 -5 48 1 1
3 1 10 10 12 8 14 36 26 14 7 17 10 34 9 -3 48 61 -19 14 27 14 18 14 13 -3 -7 15 5 -5 2 20 5 0 11 9 -8 2 26 15 16 9 7 25 5
-0 8 5 12 18 8 4 34 18 35 -24 11 23 35 -11 20 -10 68 6 1 22 32 17 20 10 5 2 7 1 -3 18 -2 28 3 2 26 -10 5 9 13 -3 -5 -13 45 10
-2 8 18 2 21 18 14 18 27 3 18 11 20 5 52 -8 16 59 19 -22 34 39 -2 18 18 12 0 8 7 11 7 21 6 20 -3 29 -2 5 -18 9 7 5 -2 -9 33
3 7 13 18 18 15 22 12 29 20 17 17 12 38 -1 16 11 -9 105 -32 46 26 20 8 10 14 -3 0 -14 -1 14 -16 12 24 18 12 -12 2 8 4 -0 -8 7 22 22
Height
5874 5873 5871 5870 5869 5868 5867 5866 5866 5865 5865 5863 5863 5863 5864 5864 5864 5865 5866 5869 5870 5872 5873 5874 5875 5875 5876 5877 5879 5882 5885 5875 5884 5883 5882 5885 5887 5887 5889 5894 5894 5894 5895 5896 5897
5871 5870 5868 5867 5866 5864 5863 5863 5861 5861 5861 5861 5860 5861 5861 5862 5863 5863 5865 5865 5867 5870 5872 5873 5873 5874 5875 5876 5878 5882 5884 5882 5888 5887 5888 5884 5886 5886 5893 5894 5893 5894 5894 5896 5897
5867 5866 5865 5863 5862 5860 5860 5859 5858 5857 5856 5857 5857 5857 5858 5859 5861 5860 5861 5862 5864 5866 5868 5871 5872 5873 5874 5875 5877 5882 5885 5883 5886 5885 5885 5887 5886 5887 5889 5888 5891 5893 5894 5896 5897
5862 5861 5860 5859 5858 5857 5856 5855 5854 5853 5851 5852 5853 5854 5854 5856 5859 5856 5857 5858 5860 5862 5865 5868 5871 5872 5873 5874 5875 5877 5880 5883 5882 5884 5886 5888 5888 5888 5892 5890 5890 5892 5894 5896 5898
5857 5855 5854 5853 5852 5851 5850 5849 5849 5848 5847 5847 5848 5849 5851 5854 5850 5853 5853 5854 5856 5859 5861 5863 5867 5868 5870 5871 5873 5874 5876 5880 5880 5884 5884 5883 5888 5887 5890 5891 5892 5891 5893 5896 5897
5850 5848 5847 5846 5845 5843 5843 5842 5843 5842 5842 5842 5842 5844 5847 5849 5845 5849 5849 5850 5852 5854 5856 5859 5863 5865 5864 5868 5870 5874 5875 5880 5880 5883 5885 5885 5889 5887 5890 5892 5893 5891 5893 5895 5896
5845 5843 5841 5839 5837 5836 5835 5834 5833 5834 5835 5835 5835 5837 5842 5839 5841 5843 5844 5845 5848 5849 5851 5853 5856 5858 5860 5863 5867 5868 5870 5874 5875 5879 5882 5882 5886 5886 5890 5892 5890 5892 5893 5894 5895
5839 5837 5835 5833 5831 5830 5828 5827 5824 5824 5825 5826 5827 5830 5836 5829 5835 5838 5839 5838 5842 5843 5845 5846 5848 5853 5854 5859 5860 5863 5866 5870 5871 5875 5881 5881 5883 5881 5884 5888 5890 5892 5894 5897 5895
5833 5830 5827 5825 5823 5820 5819 5817 5816 5816 5815 5815 5817 5820 5826 5825 5826 5827 5832 5833 5834 5836 5837 5839 5841 5846 5848 5851 5853 5857 5859 5864 5869 5873 5877 5878 5883 5884 5885 5883 5889 5890 5889 5892 5896
5823 5820 5816 5813 5811 5810 5808 5806 5805 5806 5805 5804 5805 5810 5812 5816 5816 5819 5822 5824 5827 5828 5830 5833 5834 5835 5839 5843 5849 5853 5856 5860 5866 5872 5876 5880 5880 5880 5879 5879 5884 5887 5884 5885 5888
5813 5808 5804 5800 5798 5796 5795 5794 5793 5793 5794 5794 5795 5799 5800 5805 5807 5810 5813 5814 5817 5819 5825 5826 5825 5832 5840 5841 5847 5849 5852 5856 5863 5868 5872 5877 5879 5874 5875 5874 5881 5883 5889 5886 5886
5800 5794 5788 5783 5780 5777 5776 5774 5775 5778 5786 5776 5780 5783 5787 5789 5794 5800 5802 5804 5808 5815 5816 5814 5821 5831 5831 5833 5838 5842 5846 5850 5859 5864 5866 5871 5876 5879 5869 5871 5874 5875 5880 5884 5886
5783 5776 5771 5765 5761 5757 5754 5752 5753 5755 5759 5760 5761 5767 5772 5772 5784 5787 5789 5794 5797 5804 5805 5810 5824 5819 5822 5825 5827 5835 5840 5848 5854 5862 5865 5868 5871 5876 5872 5872 5873 5873 5878 5882 5887
5767 5760 5754 5751 5746 5742 5738 5734 5730 5730 5732 5728 5740 5742 5751 5755 5763 5773 5776 5782 5783 5789 5797 5801 5809 5808 5814 5818 5823 5828 5838 5844 5848 5853 5855 5859 5863 5868 5872 5872 5873 5870 5882 5881 5885
5755 5749 5742 5737 5737 5733 5730 5725 5720 5716 5719 5713 5717 5721 5729 5737 5747 5759 5759 5765 5771 5778 5784 5794 5799 5801 5805 5816 5818 5823 5832 5837 5843 5844 5848 5853 5858 5866 5870 5867 5865 5872 5874 5878 5885
5745 5741 5736 5730 5727 5724 5718 5714 5711 5710 5706 5703 5697 5701 5709 5714 5720 5728 5732 5742 5755 5763 5771 5779 5787 5791 5800 5807 5808 5816 5821 5827 5835 5837 5834 5841 5849 5856 5862 5868 5868 5871 5872 5879 5879
5736 5733 5729 5723 5718 5712 5709 5704 5700 5699 5697 5697 5691 5691 5691 5686 5691 5700 5712 5724 5735 5743 5751 5763 5772 5782 5789 5796 5800 5805 5810 5816 5821 5821 5824 5838 5843 5848 5859 5866 5867 5867 5869 5873 5874
5727 5725 5721 5714 5708 5703 5696 5691 5685 5682 5683 5685 5682 5684 5679 5679 5677 5676 5689 5708 5723 5735 5745 5753 5762 5768 5777 5783 5792 5799 5805 5808 5812 5817 5828 5833 5831 5840 5853 5859 5865 5867 5862 5864 5872
5720 5715 5711 5704 5697 5689 5684 5677 5671 5667 5666 5669 5669 5668 5669 5668 5664 5666 5675 5693 5710 5722 5730 5738 5750 5762 5770 5778 5785 5792 5792 5804 5809 5818 5823 5826 5835 5842 5847 5850 5855 5862 5862 5861 5867
5713 5707 5702 5694 5684 5675 5669 5663 5657 5649 5648 5653 5652 5653 5654 5651 5660 5663 5668 5672 5680 5695 5703 5724 5734 5750 5763 5772 5777 5782 5794 5797 5800 5806 5812 5821 5828 5836 5841 5846 5850 5852 5857 5860 5861
5703 5696 5691 5681 5671 5666 5659 5653 5647 5640 5640 5639 5639 5639 5638 5636 5646 5650 5659 5662 5663 5673 5687 5703 5718 5737 5750 5757 5768 5774 5779 5788 5799 5802 5808 5815 5821 5831 5838 5843 5845 5850 5852 5857 5860
5696 5688 5680 5672 5667 5659 5649 5640 5635 5630 5628 5627 5628 5626 5623 5623 5622 5628 5642 5646 5654 5662 5675 5685 5703 5717 5730 5748 5763 5767 5774 5782 5786 5796 5803 5811 5817 5822 5826 5832 5841 5846 5851 5853 5856
5689 5680 5671 5665 5660 5651 5641 5632 5625 5621 5618 5617 5614 5611 5610 5606 5606 5613 5623 5636 5646 5653 5662 5673 5690 5708 5722 5731 5741 5756 5765 5776 5783 5793 5797 5807 5814 5819 5822 5827 5833 5840 5846 5851 5852
5684 5676 5667 5657 5648 5639 5632 5624 5618 5613 5609 5607 5604 5601 5598 5599 5596 5602 5611 5624 5634 5643 5649 5657 5676 5691 5708 5725 5738 5746 5757 5768 5776 5782 5792 5800 5810 5813 5818 5824 5829 5834 5840 5846 5852
5679 5671 5658 5649 5642 5630 5622 5614 5610 5605 5602 5598 5594 5590 5589 5590 5588 5587 5592 5609 5622 5632 5639 5650 5668 5685 5702 5715 5727 5740 5752 5761 5767 5777 5785 5798 5804 5811 5818 5822 5826 5833 5838 5840 5847
5675 5666 5657 5644 5634 5626 5616 5608 5601 5598 5593 5591 5583 5582 5580 5580 5577 5581 5586 5600 5609 5623 5633 5642 5658 5671 5690 5709 5724 5730 5736 5754 5764 5773 5782 5793 5801 5807 5815 5819 5822 5826 5832 5836 5840
5670 5663 5653 5640 5631 5621 5612 5603 5596 5590 5588 5582 5578 5576 5575 5573 5572 5572 5574 5594 5601 5613 5623 5636 5654 5667 5691 5705 5709 5719 5731 5751 5760 5768 5777 5786 5797 5799 5808 5813 5819 5821 5826 5830 5833